Weather History for Port Hedland, WE

Change the Weather History Date:

Saturday, September 28, 2013

  Actual Average Record
Temperature  
Mean Temperature 76 °F -  
Max Temperature 89 °F 94 °F 102 °F (2006)
Min Temperature 62 °F 65 °F 53 °F (2007)
Cooling Degree Days 10    
Growing Degree Days 26 (Base 50)    
Moisture  
Dew Point 73 °F    
Average Humidity 92    
Maximum Humidity 100    
Minimum Humidity 49    
Precipitation  
Precipitation 0.01 in 0.00 in - ()
Sea Level Pressure  
Sea Level Pressure 29.82 in    
Wind  
Wind Speed 7 mph ()    
Max Wind Speed 17 mph    
Max Gust Speed -    
Visibility 6.2 miles    
Events      
Averages and records for this station are not official NWS values.
T = Trace of Precipitation, MM = Missing Value Source: Averaged Metar Reports

Daily Weather History Graph

Daily Weather History Graph

Search for Another Location

Airport:

Trip Planner

Search our weather history database for the weather conditions in past years. The results will help you decide how hot, cold, wet, or windy it might be!

Date:

Astronomy

Sep. 28, 2013 Rise Set
Actual Time 5:49 AM WST 6:02 PM WST
Civil Twilight 5:27 AM WST 6:24 PM WST
Nautical Twilight 5:02 AM WST 6:50 PM WST
Astronomical Twilight 4:36 AM WST 7:16 PM WST
Moon 12:52 AM WST (9/28) 12:17 PM WST (9/28)
Length of Visible Light 12h 57m
Length of Day
12h 13m
Last Quarter, 41% of the Moon is Illuminated
Sep 28
Last Quarter
Oct 5
New
Oct 12
First Quarter
Oct 19
Full
Oct 27
Last Quarter

Hourly Weather History & Observations

Time (WST) Temp. Heat Index Dew Point Humidity Pressure Visibility Wind Dir Wind Speed Gust Speed Precip Events Conditions
12:00 AM 65 °F - 62 °F 89% 29.86 in - West 1.2 mph - -  
12:00 AM 66.2 °F - 62.6 °F 88% 29.83 in 6.2 mi West 1.2 mph - N/A   Unknown
12:30 AM 66.2 °F - 62.6 °F 88% 29.83 in 6.2 mi Calm Calm - N/A   Unknown
1:00 AM 64.4 °F - 60.8 °F 88% 29.83 in 6.2 mi West 1.2 mph - N/A   Unknown
1:30 AM 62.6 °F - 60.8 °F 94% 29.83 in 6.2 mi East 6.9 mph - N/A   Unknown
2:00 AM 63 °F - 62 °F 93% 29.83 in - East 5.8 mph - -  
2:00 AM 62.6 °F - 60.8 °F 94% 29.83 in 6.2 mi East 5.8 mph - N/A   Unknown
2:30 AM 62.6 °F - 60.8 °F 94% 29.80 in 6.2 mi ENE 5.8 mph - N/A   Unknown
3:00 AM 64 °F - 62 °F 91% 29.82 in - East 6.9 mph - -  
3:00 AM 64.4 °F - 62.6 °F 94% 29.80 in 6.2 mi East 6.9 mph - N/A   Unknown
3:30 AM 62.6 °F - 60.8 °F 94% 29.80 in 6.2 mi East 4.6 mph - N/A   Unknown
4:00 AM 62.6 °F - 62.6 °F 100% 29.80 in 6.2 mi ENE 4.6 mph - N/A   Unknown
4:30 AM 64.4 °F - 62.6 °F 94% 29.80 in 6.2 mi NE 4.6 mph - N/A   Unknown
5:00 AM 71 °F - 68 °F 86% 29.82 in - North 8.1 mph - -  
5:00 AM 69.8 °F - 68.0 °F 94% 29.80 in 6.2 mi North 8.1 mph - N/A   Unknown
5:30 AM 71.6 °F - 68.0 °F 88% 29.83 in 6.2 mi NNE 6.9 mph - N/A   Unknown
6:00 AM 72 °F - 69 °F 86% 29.83 in - North 8.1 mph - -  
6:00 AM 71.6 °F - 68.0 °F 88% 29.83 in 6.2 mi North 8.1 mph - N/A   Unknown
6:30 AM 73.4 °F - 69.8 °F 88% 29.83 in 6.2 mi NNE 5.8 mph - N/A   Unknown
7:00 AM 75.2 °F - 69.8 °F 83% 29.86 in 6.2 mi North 9.2 mph - N/A   Unknown
7:30 AM 77.0 °F - 69.8 °F 78% 29.86 in 6.2 mi North 11.5 mph - N/A   Unknown
8:00 AM 78 °F - 69 °F 66% 29.87 in - North 11.5 mph - -  
8:00 AM 77.0 °F - 68.0 °F 74% 29.86 in 6.2 mi North 11.5 mph - N/A   Unknown
8:30 AM 80.6 °F 82.7 °F 66.2 °F 61% 29.86 in 6.2 mi North 11.5 mph - N/A   Unknown
9:00 AM 82 °F - 66 °F 49% 29.88 in - NNW 8.1 mph - -  
9:00 AM 82.4 °F 84.6 °F 66.2 °F 58% 29.86 in 6.2 mi NNW 8.1 mph - N/A   Unknown
9:30 AM 84.2 °F 89.6 °F 71.6 °F 66% 29.86 in 6.2 mi North 6.9 mph - N/A   Unknown
10:00 AM 84.2 °F 100.6 °F 82.4 °F 94% 29.86 in 6.2 mi North 8.1 mph - N/A   Unknown
10:30 AM 86.0 °F 111.5 °F 86.0 °F 100% 29.86 in 6.2 mi NNW 9.2 mph - N/A   Unknown
11:00 AM 87 °F - 87 °F 100% 29.85 in - NNW 10.4 mph - -  
11:00 AM 87.8 °F 120.2 °F 87.8 °F 100% 29.83 in 6.2 mi NNW 10.4 mph - N/A   Unknown
11:30 AM 87.8 °F 120.2 °F 87.8 °F 100% 29.83 in 6.2 mi NW 12.7 mph - N/A   Unknown
12:00 PM 88 °F - 87 °F 98% 29.83 in - NNW 13.8 mph - -  
12:00 PM 87.8 °F 120.2 °F 87.8 °F 100% 29.80 in 6.2 mi NNW 13.8 mph - N/A   Unknown
12:30 PM 87.8 °F 120.2 °F 87.8 °F 100% 29.80 in 6.2 mi NW 12.7 mph - N/A   Unknown
1:00 PM 86.0 °F 111.5 °F 86.0 °F 100% 29.80 in 6.2 mi NW 13.8 mph - N/A   Unknown
1:30 PM 86.0 °F 111.5 °F 86.0 °F 100% 29.77 in 6.2 mi NW 17.3 mph - N/A   Unknown
2:00 PM 85 °F - 85 °F 100% 29.78 in - NW 16.1 mph - -  
2:00 PM 86.0 °F 111.5 °F 86.0 °F 100% 29.77 in 6.2 mi NW 16.1 mph - N/A   Unknown
2:30 PM 84.2 °F 103.5 °F 84.2 °F 100% 29.77 in 6.2 mi NW 16.1 mph - N/A   Unknown
3:00 PM 84 °F - 84 °F 99% 29.78 in - NW 16.1 mph - -  
3:00 PM 84.2 °F 103.5 °F 84.2 °F 100% 29.77 in 6.2 mi NW 16.1 mph - N/A   Unknown
3:30 PM 84.2 °F 103.5 °F 84.2 °F 100% 29.77 in 6.2 mi NW 16.1 mph - N/A   Unknown
4:00 PM 82.4 °F 96.1 °F 82.4 °F 100% 29.77 in 6.2 mi NW 16.1 mph - N/A   Unknown
4:30 PM 80.6 °F 89.3 °F 80.6 °F 100% 29.77 in 6.2 mi NW 17.3 mph - N/A   Unknown
5:00 PM 80 °F - 80 °F 99% 29.80 in - NW 15.0 mph - -  
5:00 PM 80.6 °F 89.3 °F 80.6 °F 100% 29.77 in 6.2 mi NW 15.0 mph - N/A   Unknown
5:30 PM 78.8 °F - 77.0 °F 94% 29.80 in 6.2 mi NW 13.8 mph - N/A   Unknown
6:00 PM 76 °F - 74 °F 93% 29.81 in - NW 11.5 mph - -  
6:00 PM 77.0 °F - 75.2 °F 94% 29.80 in 6.2 mi NW 11.5 mph - N/A   Unknown
6:30 PM 75.2 °F - 71.6 °F 89% 29.80 in 6.2 mi NW 9.2 mph - N/A   Unknown
7:00 PM 73.4 °F - 71.6 °F 94% 29.83 in 6.2 mi NW 8.1 mph - N/A   Unknown
7:30 PM 73.4 °F - 71.6 °F 94% 29.83 in 6.2 mi NW 6.9 mph - N/A   Unknown
8:00 PM 72 °F - 70 °F 93% 29.85 in - NW 6.9 mph - -  
8:00 PM 71.6 °F - 69.8 °F 94% 29.83 in 6.2 mi NW 6.9 mph - N/A   Unknown
8:30 PM 71.6 °F - 69.8 °F 94% 29.83 in 6.2 mi NW 4.6 mph - N/A   Unknown
9:00 PM 71 °F - 69 °F 92% 29.85 in - NW 5.8 mph - -  
9:00 PM 69.8 °F - 69.8 °F 100% 29.83 in 6.2 mi NW 5.8 mph - N/A   Unknown
9:30 PM 69.8 °F - 68.0 °F 94% 29.83 in 6.2 mi NW 5.8 mph - N/A   Unknown
10:00 PM 69.8 °F - 68.0 °F 94% 29.83 in 6.2 mi WNW 5.8 mph - N/A   Unknown
10:30 PM 68.0 °F - 66.2 °F 94% 29.83 in 6.2 mi WNW 6.9 mph - N/A   Unknown
11:00 PM 67 °F - 67 °F 98% 29.84 in - NW 8.1 mph - -  
11:00 PM 68.0 °F - 66.2 °F 94% 29.83 in 6.2 mi NW 8.1 mph - N/A   Unknown
11:30 PM 68.0 °F - 68.0 °F 100% 29.83 in 6.2 mi WNW 8.1 mph - N/A   Unknown